Location: Altmatt
(47.1333°N, 8.7000°E)
Time: 19:14:33
(UTC+00:00)

RESURS DK-1 - Pass Details

Date: 13 July 2020
Orbit: 555 x 562 km, 69.9° (Epoch: 11 August)

Event Time Altitude Azimuth Distance (km) Brightness Sun altitude
Rises 22:19:24 0° 331° (NNW) 2,755 7.4 -19.3°
Reaches altitude 10° 22:21:37 10° 331° (NNW) 1,856 6.2 -19.5°
Maximum altitude 22:25:46 89° 57° (ENE) 567 2.3 -19.7°
Enters shadow 22:26:40 54° 151° (SSE) 684 2.4 -19.7°
